Change the Weather History Date:

Monday, April 21, 2014

  Actual Average Record
Temperature  
Mean Temperature 65 °F -  
Max Temperature 77 °F 69 °F 96 °F (2009)
Min Temperature 55 °F 47 °F 36 °F (1971)
Growing Degree Days 15 (Base 50)    
Moisture  
Dew Point 41 °F    
Average Humidity 42    
Maximum Humidity 67    
Minimum Humidity 27    
Precipitation  
Precipitation 0.00 in - - ()
Sea Level Pressure  
Sea Level Pressure 29.98 in    
Wind  
Wind Speed 7 mph (SE)    
Max Wind Speed 18 mph    
Max Gust Speed 29 mph    
Visibility 10 miles    
Events      
Averages and records for this station are not official NWS values.
T = Trace of Precipitation, MM = Missing Value Source: NWS Daily Summary

Daily Weather History Graph

Daily Weather History Graph

Search for Another Location

Airport or City:

Trip Planner

Search our weather history database for the weather conditions in past years. The results will help you decide how hot, cold, wet, or windy it might be!

Date:

Astronomy

Apr. 21, 2014 Rise Set
Actual Time 6:20 AM PDT 7:50 PM PDT
Civil Twilight 5:52 AM PDT 8:18 PM PDT
Nautical Twilight 5:18 AM PDT 8:52 PM PDT
Astronomical Twilight 4:42 AM PDT 9:28 PM PDT
Moon 1:24 AM PDT (4/21) 11:53 AM PDT (4/21)
Length of Visible Light 14h 26m
Length of Day
13h 29m
Waning Gibbous, 56% of the Moon is Illuminated
Apr 21
Waning Gibbous
Apr 22
Last Quarter
Apr 28
New
May 6
First Quarter
May 14
Full

Hourly Weather History & Observations

Time (PDT) Temp. Dew Point Humidity Pressure Visibility Wind Dir Wind Speed Gust Speed Precip Events Conditions
12:53 AM 64.9 °F 42.1 °F 43% 30.03 in 10.0 mi ENE 6.9 mph - N/A   Clear
1:53 AM 64.9 °F 42.1 °F 43% 30.02 in 10.0 mi East 8.1 mph - N/A   Clear
2:53 AM 55.9 °F 44.1 °F 64% 30.01 in 10.0 mi SSE 6.9 mph - N/A   Clear
3:53 AM 57.9 °F 43.0 °F 58% 30.02 in 10.0 mi South 4.6 mph - N/A   Clear
4:53 AM 57.9 °F 44.1 °F 60% 30.01 in 10.0 mi SSE 3.5 mph - N/A   Clear
5:53 AM 57.9 °F 45.0 °F 62% 30.01 in 10.0 mi Calm Calm - N/A   Clear
6:53 AM 57.0 °F 46.0 °F 67% 30.02 in 10.0 mi SE 3.5 mph - N/A   Clear
7:53 AM 60.1 °F 46.9 °F 62% 30.05 in 10.0 mi Calm Calm - N/A   Clear
8:53 AM 64.9 °F 46.0 °F 50% 30.03 in 10.0 mi East 3.5 mph - N/A   Clear
9:53 AM 66.9 °F 46.9 °F 49% 30.02 in 10.0 mi South 4.6 mph - N/A   Clear
10:53 AM 69.1 °F 46.9 °F 45% 30.04 in 10.0 mi Variable 4.6 mph - N/A   Clear
11:53 AM 72.0 °F 39.0 °F 30% 30.04 in 10.0 mi ESE 9.2 mph - N/A   Clear
12:53 PM 71.1 °F 39.0 °F 31% 30.02 in 10.0 mi SE 12.7 mph - N/A   Clear
1:53 PM 73.0 °F 39.9 °F 30% 29.99 in 10.0 mi SE 17.3 mph - N/A   Clear
2:53 PM 75.0 °F 41.0 °F 29% 29.98 in 10.0 mi SSE 11.5 mph - N/A   Clear
3:53 PM 75.0 °F 39.0 °F 27% 29.96 in 10.0 mi South 10.4 mph - N/A   Mostly Cloudy
4:53 PM 75.0 °F 41.0 °F 29% 29.94 in 10.0 mi SE 9.2 mph - N/A   Mostly Cloudy
5:54 PM 73.0 °F 42.1 °F 33% 29.92 in 10.0 mi SE 8.1 mph - N/A   Unknown
6:53 PM 73.0 °F 41.0 °F 31% 29.90 in 10.0 mi ESE 6.9 mph - N/A   Overcast
7:53 PM 71.1 °F 39.0 °F 31% 29.90 in 10.0 mi Calm Calm - N/A   Mostly Cloudy
8:53 PM 68.0 °F 37.9 °F 33% 29.89 in 10.0 mi South 8.1 mph - N/A   Scattered Clouds
9:53 PM 64.9 °F 39.9 °F 40% 29.89 in 10.0 mi SSE 6.9 mph - N/A   Partly Cloudy
10:53 PM 64.9 °F 30.0 °F 27% 29.88 in 10.0 mi SSE 15.0 mph - N/A   Partly Cloudy
11:53 PM 62.1 °F 32.0 °F 32% 29.90 in 10.0 mi South 18.4 mph 28.8 mph N/A   Clear